Holdrege, NE

4:45 AM CST on December 14, 2017 (GMT -0600)
Brewster

Weather History for KHDE - April, 2013

Change the Weather History Date:

Monday, April 22, 2013

  Actual Average Record
Temperature  
Mean Temperature 38 °F -  
Max Temperature 46 °F 64 °F 92 °F (1950)
Min Temperature 31 °F 38 °F 24 °F (1967)
Degree Days  
Heating Degree Days 26    
Moisture  
Dew Point 36 °F    
Average Humidity 90    
Maximum Humidity 97    
Minimum Humidity 79    
Precipitation  
Precipitation 0.97 in - - ()
Sea Level Pressure  
Sea Level Pressure 30.07 in    
Wind  
Wind Speed 18 mph (NE)    
Max Wind Speed 31 mph    
Max Gust Speed 40 mph    
Visibility 7 miles    
Events Fog , Rain , Snow , Thunderstorm    
Averages and records for this station are not official NWS values.
T = Trace of Precipitation, MM = Missing Value Source: NWS Daily Summary

Daily Weather History Graph

Daily Weather History Graph

Search for Another Location

Airport or City:

Trip Planner

Search our weather history database for the weather conditions in past years. The results will help you decide how hot, cold, wet, or windy it might be!

Date:

Astronomy

Apr. 22, 2013 Rise Set
Actual Time 6:48 AM CDT 8:24 PM CDT
Civil Twilight 6:19 AM CDT 8:52 PM CDT
Nautical Twilight 5:44 AM CDT 9:27 PM CDT
Astronomical Twilight 5:07 AM CDT 10:04 PM CDT
Moon 5:14 PM CDT (4/22) 4:44 AM CDT (4/22)
Length of Visible Light 14h 33m
Length of Day
13h 35m
Waxing Gibbous, 88% of the Moon is Illuminated
Apr 22
Waxing Gibbous
Apr 25
Full
May 2
Last Quarter
May 9
New
May 17
First Quarter

Hourly Weather History & Observations

Time (CDT) Temp. Windchill Dew Point Humidity Pressure Visibility Wind Dir Wind Speed Gust Speed Precip Events Conditions
12:15 AM 46.9 °F - 42.8 °F 86% 30.07 in 10.0 mi NE 18.4 mph 26.5 mph N/A   Scattered Clouds
12:35 AM 46.4 °F 38.5 °F 42.1 °F 85% 30.06 in 10.0 mi NE 21.9 mph 26.5 mph N/A   Mostly Cloudy
12:55 AM 45.1 °F 37.9 °F 41.2 °F 86% 30.05 in 10.0 mi ENE 17.3 mph - N/A   Scattered Clouds
1:15 AM 44.6 °F 36.6 °F 41.0 °F 87% 30.05 in 10.0 mi ENE 19.6 mph 25.3 mph N/A   Mostly Cloudy
1:35 AM 44.2 °F 36.4 °F 41.2 °F 89% 30.04 in 10.0 mi ENE 18.4 mph 25.3 mph N/A   Overcast
1:55 AM 44.2 °F 36.4 °F 41.4 °F 90% 30.05 in 10.0 mi ENE 18.4 mph 26.5 mph N/A   Overcast
2:15 AM 43.7 °F 35.4 °F 41.2 °F 91% 30.05 in 10.0 mi ENE 19.6 mph - N/A Thunderstorm Thunderstorm
2:35 AM 43.3 °F 37.2 °F 41.0 °F 91% 30.05 in 10.0 mi ENE 11.5 mph - N/A Thunderstorm Thunderstorm
2:55 AM 43.3 °F 39.2 °F 41.4 °F 93% 30.07 in 5.0 mi ENE 6.9 mph - N/A Rain Light Rain
3:15 AM 43.2 °F 38.4 °F 41.5 °F 94% 30.05 in 2.5 mi East 8.1 mph - 0.08 in Rain Rain
3:35 AM 43.0 °F 40.3 °F 41.5 °F 95% 30.04 in 3.0 mi ENE 4.6 mph - 0.12 in Rain Rain
3:55 AM 43.3 °F 38.1 °F 41.9 °F 95% 30.04 in 4.0 mi ESE 9.2 mph - 0.16 in Rain , Thunderstorm Rain
4:15 AM 43.2 °F 35.6 °F 41.9 °F 95% 29.99 in 4.0 mi ENE 16.1 mph - 0.05 in Rain Light Rain
4:35 AM 43.0 °F 35.7 °F 41.9 °F 96% 29.98 in 4.0 mi ENE 15.0 mph - 0.09 in Rain Rain
4:55 AM 43.0 °F 36.4 °F 41.9 °F 96% 29.98 in 5.0 mi East 12.7 mph - 0.09 in   Overcast
5:15 AM 43.2 °F 36.6 °F 41.9 °F 95% 29.99 in 4.0 mi East 12.7 mph - N/A   Overcast
5:35 AM 43.3 °F 37.2 °F 42.1 °F 95% 29.98 in 3.0 mi East 11.5 mph - N/A   Unknown
5:55 AM 43.2 °F 37.0 °F 41.9 °F 95% 29.98 in 2.5 mi East 11.5 mph - N/A   Overcast
6:15 AM 43.0 °F 36.4 °F 41.9 °F 96% 29.97 in 3.0 mi East 12.7 mph - N/A   Overcast
6:35 AM 43.2 °F 37.4 °F 41.9 °F 95% 29.96 in 3.0 mi East 10.4 mph - N/A   Overcast
6:55 AM 43.0 °F 37.2 °F 41.9 °F 96% 29.96 in 3.0 mi East 10.4 mph - N/A   Overcast
7:15 AM 43.3 °F 36.8 °F 42.3 °F 96% 29.96 in 4.0 mi East 12.7 mph - N/A Thunderstorm Overcast
7:35 AM 43.7 °F 37.3 °F 42.8 °F 97% 29.96 in 2.5 mi East 12.7 mph - N/A Thunderstorm Overcast
7:55 AM 44.1 °F 38.6 °F 43.0 °F 96% 29.95 in 2.0 mi East 10.4 mph - N/A   Overcast
8:15 AM 44.2 °F 39.2 °F 43.2 °F 96% 29.95 in 1.2 mi East 9.2 mph - N/A   Overcast
8:35 AM 44.4 °F 38.6 °F 43.2 °F 95% 29.93 in 0.5 mi East 11.5 mph - N/A Fog Fog
8:55 AM 44.8 °F 38.7 °F 43.7 °F 96% 29.93 in 0.5 mi East 12.7 mph - N/A Fog Fog
9:15 AM 45.0 °F 41.8 °F 43.9 °F 96% 29.93 in 0.2 mi East 5.8 mph - N/A Thunderstorm Unknown
9:35 AM 45.3 °F 43.0 °F 44.2 °F 96% 29.95 in 0.2 mi NE 4.6 mph - N/A Rain , Thunderstorm Light Thunderstorms and Rain
9:55 AM 45.1 °F 42.0 °F 44.1 °F 96% 29.94 in 0.2 mi East 5.8 mph - 0.04 in Rain , Thunderstorm Rain
10:15 AM 45.5 °F 42.5 °F 44.6 °F 97% 29.96 in 0.8 mi ENE 5.8 mph - 0.04 in Rain , Thunderstorm Rain
10:35 AM 45.5 °F 41.8 °F 44.2 °F 95% 29.97 in 1.5 mi North 6.9 mph - 0.12 in Rain , Thunderstorm Thunderstorms and Rain
10:55 AM 43.0 °F 35.7 °F 41.9 °F 96% 30.00 in 4.0 mi North 15.0 mph 23.0 mph 0.22 in Rain , Thunderstorm Heavy Thunderstorms and Rain
11:15 AM 39.9 °F 31.1 °F 38.8 °F 96% 30.01 in 1.8 mi North 17.3 mph 24.2 mph 0.11 in Rain Light Rain
11:35 AM 38.8 °F 28.0 °F 37.6 °F 95% 30.01 in 2.0 mi North 24.2 mph - 0.20 in Rain , Thunderstorm Light Thunderstorms and Rain
11:55 AM 37.6 °F 26.6 °F 36.1 °F 95% 30.00 in 1.8 mi NNE 23.0 mph 29.9 mph 0.27 in Snow Light Snow
12:15 PM 37.0 °F 26.2 °F 35.4 °F 94% 30.00 in 1.5 mi NE 21.9 mph 26.5 mph 0.10 in Thunderstorm Thunderstorm
12:35 PM 37.0 °F 25.4 °F 35.6 °F 95% 29.97 in 5.0 mi ENE 25.3 mph 31.1 mph 0.17 in Rain , Thunderstorm Light Thunderstorms and Rain
12:55 PM 37.4 °F 26.6 °F 35.8 °F 94% 29.96 in 10.0 mi NE 21.9 mph 25.3 mph 0.19 in Rain , Thunderstorm Light Thunderstorms and Rain
1:15 PM 37.4 °F 25.4 °F 35.6 °F 93% 30.00 in 10.0 mi North 27.6 mph 34.5 mph N/A Thunderstorm Overcast
1:35 PM 36.7 °F 25.1 °F 34.7 °F 93% 30.02 in 10.0 mi North 24.2 mph 34.5 mph N/A   Overcast
1:55 PM 35.8 °F 23.2 °F 33.1 °F 90% 30.03 in 10.0 mi North 27.6 mph 39.1 mph N/A   Overcast
2:15 PM 34.9 °F 21.5 °F 32.2 °F 90% 30.04 in 10.0 mi North 29.9 mph 38.0 mph N/A   Overcast
2:35 PM 34.2 °F 20.8 °F 31.6 °F 90% 30.06 in 10.0 mi North 28.8 mph 39.1 mph N/A   Overcast
2:55 PM 33.6 °F 19.6 °F 30.2 °F 87% 30.07 in 10.0 mi North 31.1 mph 36.8 mph N/A   Overcast
3:15 PM 32.9 °F 18.9 °F 29.3 °F 87% 30.09 in 10.0 mi North 29.9 mph 36.8 mph N/A   Overcast
3:35 PM 32.5 °F 19.1 °F 28.6 °F 85% 30.10 in 10.0 mi North 26.5 mph 39.1 mph N/A   Overcast
3:55 PM 32.9 °F 19.1 °F 29.7 °F 88% 30.10 in 10.0 mi North 28.8 mph 34.5 mph N/A   Overcast
4:15 PM 32.9 °F 18.6 °F 30.0 °F 89% 30.10 in 10.0 mi North 31.1 mph 36.8 mph N/A   Overcast
4:35 PM 32.9 °F 18.9 °F 29.7 °F 88% 30.10 in 10.0 mi North 29.9 mph 35.7 mph N/A   Overcast
4:55 PM 32.9 °F 20.4 °F 28.9 °F 85% 30.11 in 10.0 mi North 23.0 mph 40.3 mph N/A   Overcast
5:15 PM 32.9 °F 19.1 °F 29.1 °F 86% 30.12 in 10.0 mi North 28.8 mph 35.7 mph N/A   Overcast
5:35 PM 33.4 °F 19.8 °F 29.5 °F 85% 30.12 in 10.0 mi North 28.8 mph 36.8 mph N/A   Overcast
5:55 PM 33.4 °F 19.6 °F 29.3 °F 85% 30.12 in 10.0 mi North 29.9 mph 35.7 mph N/A   Overcast
6:15 PM 33.1 °F 19.3 °F 28.4 °F 83% 30.14 in 10.0 mi North 28.8 mph 40.3 mph N/A   Overcast
6:35 PM 32.5 °F 19.4 °F 28.0 °F 83% 30.16 in 10.0 mi North 25.3 mph 36.8 mph N/A   Overcast
6:55 PM 32.0 °F 18.9 °F 28.4 °F 87% 30.15 in 10.0 mi North 24.2 mph 35.7 mph N/A   Overcast
7:15 PM 32.4 °F 17.9 °F 27.5 °F 82% 30.15 in 10.0 mi North 31.1 mph 38.0 mph N/A   Overcast
7:35 PM 32.4 °F 19.1 °F 27.5 °F 82% 30.19 in 10.0 mi North 25.3 mph 32.2 mph N/A   Overcast
7:55 PM 32.4 °F 18.4 °F 27.5 °F 82% 30.20 in 10.0 mi North 28.8 mph 33.4 mph N/A   Overcast
8:15 PM 32.4 °F 18.6 °F 27.1 °F 81% 30.20 in 10.0 mi North 27.6 mph 36.8 mph N/A   Overcast
8:35 PM 32.4 °F 18.9 °F 27.1 °F 81% 30.20 in 10.0 mi North 26.5 mph 35.7 mph N/A   Overcast
8:55 PM 32.2 °F 19.4 °F 27.3 °F 82% 30.20 in 10.0 mi NNE 23.0 mph 34.5 mph N/A   Overcast
9:15 PM 32.0 °F 18.1 °F 27.5 °F 83% 30.21 in 10.0 mi North 27.6 mph 32.2 mph N/A   Overcast
9:35 PM 32.0 °F 18.4 °F 26.8 °F 81% 30.22 in 10.0 mi NNE 26.5 mph 36.8 mph N/A   Overcast
9:55 PM 32.0 °F 18.9 °F 27.3 °F 83% 30.26 in 10.0 mi North 24.2 mph 33.4 mph N/A   Overcast
10:15 PM 32.0 °F 18.9 °F 27.3 °F 83% 30.27 in 10.0 mi North 24.2 mph 32.2 mph N/A   Overcast
10:35 PM 32.0 °F 19.5 °F 27.0 °F 82% 30.25 in 10.0 mi North 21.9 mph 31.1 mph N/A   Overcast
10:55 PM 32.0 °F 19.2 °F 26.6 °F 80% 30.28 in 10.0 mi North 23.0 mph 32.2 mph N/A   Overcast
11:15 PM 32.0 °F 18.1 °F 26.6 °F 80% 30.27 in 10.0 mi North 27.6 mph 31.1 mph N/A   Overcast
11:35 PM 31.6 °F 17.4 °F 25.7 °F 79% 30.27 in 10.0 mi North 28.8 mph 35.7 mph N/A   Overcast
11:55 PM 31.6 °F 18.1 °F 25.7 °F 79% 30.26 in 10.0 mi North 25.3 mph 34.5 mph N/A   Overcast